Regional Weather Roundup
Issued by NWS

Home | Current Version | Previous Version | Graphics & Text | Print | Product List | Glossary On
Versions: 1 2 3 4 5 6 7 8 9 10 11 12 13 14 15 16 17 18 19 20 21 22 23 24 25 26 27 28 29 30 31 32 33 34 35 36 37 38 39 40 41 42 43 44 45 46 47 48 49 50
510
ASUS45 KCYS 110510
RWRWY

WYOMING REGIONAL WEATHER ROUNDUP
NATIONAL WEATHER SERVICE CHEYENNE WY
1000 PM MST SUN DEC 10 2017

NOTE:  "FAIR" INDICATES FEW OR NO CLOUDS BELOW 12,000 FEET
WITH NO SIGNIFICANT WEATHER AND/OR OBSTRUCTIONS TO VISIBILITY.

WYZ001-110600-
YELLOWSTONE NATIONAL PARK

CITY           SKY/WX    TMP DP  RH WIND       PRES   REMARKS
LK YELLOWSTONE   N/A      7   5  91 CALM      30.58S
W YELLOWSTONE  NOT AVBL

$$
WYZ002>013-054>058-071-098>099-110600-
NORTHERN WYOMING

CITY           SKY/WX    TMP DP  RH WIND       PRES   REMARKS
JACKSON        FAIR      14  11  87 NE5       30.60R WCI   6
CODY           FAIR      28  13  53 S6        30.38F WCI  22
GREYBULL       FAIR      16   9  74 W6        30.39R WCI   7
WORLAND        FAIR      23  18  81 S10       30.39R WCI  12
SHERIDAN       FAIR      49   8  19 N8        30.32S
BUFFALO        FAIR      43   5  20 N14       30.30F
GILLETTE       FAIR      37  14  38 W12       30.27S WCI  29
HULETT         FAIR      41  16  36 SW13      30.23S
NEWCASTLE      FAIR      36  12  38 NW10      30.24S WCI  28

$$
WYZ014>020-022>026-101>103-110600-
CENTRAL WYOMING

CITY           SKY/WX    TMP DP  RH WIND       PRES   REMARKS
BIG PINEY      FAIR      23  -1  35 VRB5      30.50R WCI  17
PINEDALE       FAIR      23   5  46 CALM      30.50R
DUBOIS         FAIR      34  -2  21 NW10      30.46R WCI  26
LANDER         FAIR      18  13  80 S6        30.40R WCI  10
RIVERTON       FAIR      18  13  80 N6        30.41R WCI  10
CASPER         FAIR      33  16  49 W12       30.37R WCI  24
DOUGLAS        FAIR      28  17  63 N8        30.33R WCI  20

$$
WYZ021-027>030-104>119-110600-
SOUTHERN WYOMING

CITY           SKY/WX    TMP DP  RH WIND       PRES   REMARKS
EVANSTON       FAIR      30  11  45 CALM      30.54S
FORT BRIDGER   CLEAR     32   7  34 W15       30.54S WCI  22
ROCK SPRINGS   FAIR      34   5  29 SW17      30.49R WCI  23
DIXON          FAIR      20  11  66 E6        30.53F WCI  13
RAWLINS        FAIR      34   8  33 W6        30.44S WCI  29
SARATOGA       FAIR      21  10  63 E3        30.47F
LARAMIE        FAIR      19   7  59 CALM      30.39S
CHEYENNE       FAIR      40   1  19 NW16G26   30.32S WCI  31
TORRINGTON     FAIR      38  11  32 NW8       30.27R WCI  32
PINE BLUFFS    FAIR      36   3  25 MISG      30.31S

$$




USA.gov is the U.S. government's official web portal to all federal, state and local government web resources and services.